Location: Brno
(49.2000°N, 16.6330°E)
Time: 23:04:48
(UTC+02:00)

RESURS DK-1 - Visible Passes

Search period start: 23 August 2016 00:00
Search period end: 02 September 2016 00:00
Orbit: 559 x 562 km, 69.9° (Epoch: 23 August)

Date Brightness Start Highest point End Pass type
(mag) Time Alt. Az. Time Alt. Az. Time Alt. Az.
23 Aug 3.7 20:54:20 10° N 20:57:53 26° NE 21:00:43 14° E visible
23 Aug 3.1 22:32:11 10° NW 22:36:06 42° WSW 22:36:39 39° SW visible
24 Aug 3.4 20:53:00 10° NNW 20:56:47 32° NE 20:59:39 15° ESE visible
24 Aug 3.6 22:31:08 10° NW 22:34:50 32° WSW 22:35:34 30° SW visible
25 Aug 3.0 20:51:42 10° NNW 20:55:40 41° NE 20:58:37 16° ESE visible
25 Aug 4.1 22:30:10 10° NW 22:33:33 24° WSW 22:34:33 22° SW visible
26 Aug 2.7 20:50:26 10° NNW 20:54:31 53° NE 20:57:38 16° SE visible
26 Aug 4.5 22:29:18 10° WNW 22:32:13 19° WSW 22:33:34 16° SW visible
27 Aug 2.4 20:49:12 10° NNW 20:53:21 69° ENE 20:56:43 15° SE visible
27 Aug 4.9 22:28:38 10° WNW 22:30:53 14° WSW 22:32:39 11° SW visible
28 Aug 2.3 20:47:59 10° NNW 20:52:10 90° WSW 20:55:51 13° SSE visible
28 Aug 5.2 22:28:35 10° W 22:29:31 11° W 22:30:27 10° WSW visible
29 Aug 2.6 20:46:49 10° NW 20:50:57 68° WSW 20:55:03 10° SSE visible
30 Aug 3.1 20:45:40 10° NW 20:49:43 51° WSW 20:53:43 10° S visible
31 Aug 3.7 20:44:35 10° NW 20:48:27 38° WSW 20:52:17 10° S visible
01 Sep 4.2 20:43:33 10° NW 20:47:10 29° WSW 20:50:46 10° S visible
